Regional Weather Roundup
Issued by NWS

Home | Current Version | Previous Version | Text Only | Print | Product List | Glossary Off
Versions: 1 2 3 4 5 6 7 8 9 10 11 12 13 14 15 16 17 18 19 20 21 22 23 24 25 26 27 28 29 30 31 32 33 34 35 36 37 38 39 40 41 42 43 44 45 46 47 48 49 50

000
ASUS43 KOAX 221810
RWRNE

WEATHER ROUNDUP FOR NEBRASKA
NATIONAL WEATHER SERVICE OMAHA NE
100 PM CDT TUE APR 22 2014

NOTES: SATELLITE DATA IS BEING USED TO AUGMENT CLOUD COVER ABOVE
       12000 FEET.
       "FAIR" INDICATES FEW OR NO CLOUDS BELOW 12,000 FEET WITH NO
       SIGNIFICANT WEATHER AND/OR OBSTRUCTIONS TO VISIBILITY.

  * THESE STATIONS DO NOT REPORT WEATHER SUCH AS RAIN...SNOW OR FOG.

NEZ001>004-019>022-054>056-221900-
NEBRASKA PANHANDLE

CITY           SKY/WX    TMP DP  RH WIND       PRES   REMARKS
SCOTTSBLUFF    CLOUDY    73  43  33 S9G21     29.85F
6HR MIN TEMP:  44; 6HR MAX TEMP:  73;

ALLIANCE       PTSUNNY   72  41  32 S20G32    29.86F
6HR MIN TEMP:  45; 6HR MAX TEMP:  72;

CHADRON        CLOUDY    69  45  41 SW14      29.79F
6HR MIN TEMP:  51; 6HR MAX TEMP:  69;

KIMBALL        CLOUDY    66  39  36 S16       29.89F
SIDNEY         PTSUNNY   72  42  34 S23       29.90F
6HR MIN TEMP:  50; 6HR MAX TEMP:  72;

$$

NEZ057>060-069>072-079>082-221900-
SOUTHWEST NEBRASKA

CITY           SKY/WX    TMP DP  RH WIND       PRES   REMARKS
NORTH PLATTE   MOSUNNY   67  31  26 S17G33    29.97F
6HR MIN TEMP:  36; 6HR MAX TEMP:  68;

IMPERIAL       MOSUNNY   72  33  24 S28G38    29.95F
6HR MIN TEMP:  43; 6HR MAX TEMP:  72;

LEXINGTON      SUNNY     68  32  26 S25G32    30.02F
MCCOOK         SUNNY     71  32  23 S24G33    29.99F
6HR MIN TEMP:  44; 6HR MAX TEMP:  72;

OGALLALA       MOSUNNY   71  32  24 S28       29.91F
$$

NEZ005>010-023>029-035>040-094-221900-
NORTH CENTRAL NEBRASKA

CITY           SKY/WX    TMP DP  RH WIND       PRES   REMARKS
VALENTINE      MOSUNNY   71  29  21 S28G37    29.90F
6HR MIN TEMP:  47; 6HR MAX TEMP:  71;

AINSWORTH      MOSUNNY   69  31  24 S24G31    29.94F
BROKEN BOW     CLOUDY    65  31  28 S23G30    30.01F
6HR MIN TEMP:  33; 6HR MAX TEMP:  65;

O`NEILL        PTSUNNY   64  23  21 SE21      30.04F
ORD            CLOUDY    63  32  31 SE18G25   30.04F
6HR MIN TEMP:  31; 6HR MAX TEMP:  63;

THEDFORD       SUNNY     70  27  19 S23G32    29.95F
$$

NEZ041-046>049-061>064-073>077-083>087-221900-
SOUTH CENTRAL NEBRASKA

CITY           SKY/WX    TMP DP  RH WIND       PRES   REMARKS
GRAND ISLAND   CLOUDY    66  31  27 S18       30.08F
6HR MIN TEMP:  39; 6HR MAX TEMP:  66;

AURORA         FAIR      66  32  28 SE14G20   30.09F
HASTINGS       CLOUDY    65  30  27 S14G23    30.08F
6HR MIN TEMP:  38; 6HR MAX TEMP:  66;

HEBRON         FAIR      67  28  23 S12       30.11F
HOLDREGE       CLOUDY    64  32  30 S21G26    30.04F
KEARNEY *      CLOUDY    64  34  32 S20G25    30.07F
YORK           FAIR      64  30  27 SE14G20   30.11F
$$

NEZ011>018-030>034-042>045-221900-
NORTHEAST NEBRASKA

CITY           SKY/WX    TMP DP  RH WIND       PRES   REMARKS
NORFOLK        FAIR      64  28  25 SE15G22   30.08F
6HR MIN TEMP:  37; 6HR MAX TEMP:  64;

ALBION         PTSUNNY   63  27  25 S14G21    30.08F
BLAIR          FAIR      62  30  30 E6        30.12F
COLUMBUS *     FAIR      64  34  32 SE12G17   30.11F
FREMONT        FAIR      63  29  27 SE10      30.13F
TEKAMAH        FAIR      65  30  27 SE8       30.12F
6HR MIN TEMP:  33; 6HR MAX TEMP:  65;

$$

NEZ050>053-065>068-078-088>093-221900-
SOUTHEAST NEBRASKA

CITY           SKY/WX    TMP DP  RH WIND       PRES   REMARKS
LINCOLN        FAIR      65  32  29 SE8       30.14F
6HR MIN TEMP:  41; 6HR MAX TEMP:  65;

OMAHA EPPLEY   FAIR      62  31  31 E7        30.13F
6HR MIN TEMP:  41; 6HR MAX TEMP:  63;

BEATRICE       FAIR      65  29  26 E10       30.12F
FALLS CITY     FAIR      64  30  27 VRB3      30.12F
6HR MIN TEMP:  44; 6HR MAX TEMP:  66;

NEBRASKA CITY  FAIR      62  31  31 SE3       30.13F
PLATTSMOUTH    FAIR      62  28  27 NE6       30.13F
$$

NEZ044-045-051>053-067-221900-
OMAHA AREA

CITY           SKY/WX    TMP DP  RH WIND       PRES   REMARKS
OMAHA EPPLEY   FAIR      62  31  31 E7        30.13F
6HR MIN TEMP:  41; 6HR MAX TEMP:  63;

BLAIR          FAIR      62  30  30 E6        30.12F
FREMONT        FAIR      63  29  27 SE10      30.13F
MILLARD        FAIR      60  32  34 CALM      30.13F
OFFUTT AFB     FAIR      62  33  33 E5        30.13F
PLATTSMOUTH    FAIR      62  28  27 NE6       30.13F
WAHOO          FAIR      62  26  24 E9        30.12F
$$



USA.gov is the U.S. government's official web portal to all federal, state and local government web resources and services.